Doha, Qatar

11:40 PM AST on August 28, 2016 (GMT +0300)
Doha International

Weather History for OTBD - February, 2013

Change the Weather History Date:

Sunday, February 24, 2013

  Actual Average Record
Temperature  
Mean Temperature 71 °F -  
Max Temperature 78 °F 79 °F 81 °F (2016)
Min Temperature 64 °F 61 °F 53 °F (2001)
Cooling Degree Days 6    
Growing Degree Days 21 (Base 50)    
Moisture  
Dew Point 62 °F    
Average Humidity 72    
Maximum Humidity 88    
Minimum Humidity 38    
Precipitation  
Precipitation 0.00 in 0.02 in - ()
Sea Level Pressure  
Sea Level Pressure 30.00 in    
Wind  
Wind Speed 7 mph ()    
Max Wind Speed 20 mph    
Max Gust Speed -    
Visibility 4.9 miles    
Events      
Averages and records for this station are not official NWS values.
T = Trace of Precipitation, MM = Missing Value Source: Averaged Metar Reports

Daily Weather History Graph

Daily Weather History Graph

Search for Another Location

Airport or City:

Trip Planner

Search our weather history database for the weather conditions in past years. The results will help you decide how hot, cold, wet, or windy it might be!

Date:

Astronomy

Feb. 24, 2013 Rise Set
Actual Time 6:01 AM AST 5:33 PM AST
Civil Twilight 5:38 AM AST 5:56 PM AST
Nautical Twilight 5:11 AM AST 6:22 PM AST
Astronomical Twilight 4:44 AM AST 6:49 PM AST
Moon 4:22 PM AST (2/24) 4:40 AM AST (2/24)
Length of Visible Light 12h 18m
Length of Day
11h 31m
Waxing Gibbous, 98% of the Moon is Illuminated
Feb 24
Waxing Gibbous
Feb 25
Full
Mar 5
Last Quarter
Mar 11
New
Mar 19
First Quarter

Hourly Weather History & Observations

Time (AST) Temp. Dew Point Humidity Pressure Visibility Wind Dir Wind Speed Gust Speed Precip Events Conditions
12:00 AM 68.0 °F 62.6 °F 83% 29.98 in - SE 6.9 mph - N/A   Clear
12:30 AM 68.0 °F 62.6 °F 83% 29.98 in 5.6 mi ESE 4.6 mph - N/A   Unknown
1:00 AM 66.2 °F 62.6 °F 88% 29.98 in 5.0 mi SE 6.9 mph - N/A   Unknown
1:30 AM 66.2 °F 62.6 °F 88% 29.95 in 5.0 mi ESE 5.8 mph - N/A   Unknown
2:00 AM 68.0 °F 64.4 °F 88% 29.95 in 5.0 mi SE 10.4 mph - N/A   Partly Cloudy
2:30 AM 68.0 °F 64.4 °F 88% 29.95 in 3.7 mi SE 10.4 mph - N/A   Partly Cloudy
3:00 AM 68 °F 64 °F 83% 29.95 in 4 mi SE 9.2 mph - -   Haze
3:00 AM 68.0 °F 64.4 °F 88% 29.95 in 3.7 mi SE 9.2 mph - N/A   Partly Cloudy
3:30 AM 68.0 °F 64.4 °F 88% 29.95 in 3.7 mi SE 6.9 mph - N/A   Unknown
4:00 AM 66.2 °F 62.6 °F 88% 29.95 in 3.7 mi SE 6.9 mph - N/A   Unknown
4:30 AM 68.0 °F 64.4 °F 88% 29.92 in 4.3 mi ESE 11.5 mph - N/A   Unknown
5:00 AM 68.0 °F 64.4 °F 88% 29.92 in 4.3 mi SE 13.8 mph - N/A   Unknown
5:30 AM 68.0 °F 64.4 °F 88% 29.98 in 4.3 mi NNW 3.5 mph - N/A   Unknown
6:00 AM 68.0 °F 64.4 °F 88% 29.98 in 5.6 mi Variable 2.3 mph - N/A   Unknown
6:30 AM 68.0 °F 64.4 °F 88% 30.01 in 5.6 mi ESE 3.5 mph - N/A   Unknown
7:00 AM 68.0 °F 64.4 °F 88% 30.01 in 5.0 mi SE 5.8 mph - N/A   Unknown
7:30 AM 69.8 °F 64.4 °F 83% 30.01 in 5.0 mi ESE 6.9 mph - N/A   Unknown
8:00 AM 69.8 °F 66.2 °F 88% 30.01 in - ESE 8.1 mph - N/A   Clear
8:30 AM 71.6 °F 66.2 °F 83% 30.04 in - ENE 4.6 mph - N/A   Clear
9:00 AM 72 °F 64 °F 71% 30.07 in 6 mi NE 5.8 mph - -   Scattered Clouds
9:00 AM 73.4 °F 64.4 °F 73% 30.06 in 6.2 mi NE 5.8 mph - N/A   Scattered Clouds
10:00 AM 73.4 °F 64.4 °F 73% 30.06 in 6.2 mi NE 9.2 mph - N/A   Mostly Cloudy
10:30 AM 75.2 °F 62.6 °F 65% 30.06 in 6.2 mi East 8.1 mph - N/A   Scattered Clouds
11:00 AM 75.2 °F 62.6 °F 65% 30.04 in 6.2 mi East 9.2 mph - N/A   Scattered Clouds
11:30 AM 77.0 °F 60.8 °F 57% 30.04 in - East 10.4 mph - N/A   Clear
12:00 PM 77.0 °F 60.8 °F 57% 30.04 in - East 5.8 mph - N/A   Clear
12:30 PM 77.0 °F 59.0 °F 54% 30.01 in - ESE 6.9 mph - N/A   Clear
1:00 PM 77.0 °F 59.0 °F 54% 30.01 in - East 9.2 mph - N/A   Clear
1:30 PM 78.8 °F 59.0 °F 51% 29.98 in - East 8.1 mph - N/A   Clear
2:30 PM 77.0 °F 59.0 °F 54% 29.95 in - East 9.2 mph - N/A   Clear
3:00 PM 76 °F 62 °F 52% 29.97 in 7 mi East 10.4 mph - -   Scattered Clouds
3:00 PM 75.2 °F 62.6 °F 65% 29.95 in - East 10.4 mph - N/A   Clear
3:30 PM 75.2 °F 62.6 °F 65% 29.95 in - East 9.2 mph - N/A   Clear
4:00 PM 75.2 °F 60.8 °F 61% 29.95 in - ESE 8.1 mph - N/A   Clear
4:30 PM 75.2 °F 62.6 °F 65% 29.98 in - ESE 6.9 mph - N/A   Clear
5:00 PM 75.2 °F 60.8 °F 61% 29.98 in - ESE 5.8 mph - N/A   Clear
5:30 PM 73.4 °F 60.8 °F 65% 29.98 in - East 4.6 mph - N/A   Clear
6:00 PM 73.4 °F 64.4 °F 73% 29.98 in - Variable 1.2 mph - N/A   Clear
6:30 PM 71.6 °F 64.4 °F 78% 30.01 in - Variable 2.3 mph - N/A   Clear
7:00 PM 71.6 °F 64.4 °F 78% 30.01 in - Variable 1.2 mph - N/A   Clear
7:30 PM 71.6 °F 64.4 °F 78% 30.04 in - North 3.5 mph - N/A   Clear
8:00 PM 71.6 °F 59.0 °F 64% 30.04 in - North 5.8 mph - N/A   Clear
8:02 PM - - N/A% - 1.2 mi North 11.5 mph - N/A   Widespread Dust
8:30 PM 73.4 °F 50.0 °F 44% 30.04 in - NNW 11.5 mph - N/A   Clear
9:00 PM 73 °F 53 °F 38% 30.07 in 6 mi NNW 16.1 mph - -  
9:00 PM 73.4 °F 53.6 °F 50% 30.06 in - NNW 16.1 mph - N/A   Clear
9:30 PM 71.6 °F 57.2 °F 60% 30.06 in - NNW 19.6 mph - N/A   Clear
10:00 PM 69.8 °F 59.0 °F 68% 30.06 in - NNW 16.1 mph - N/A   Clear
11:00 PM 69.8 °F 60.8 °F 73% 30.06 in - NNW 16.1 mph - N/A   Clear